DW8847 Weather Reports


Display with metric or nautical units.
time (UTC)temp
F
wind
direction
speed
MPH
gust
MPH
rain 1hr
in
rain 24hr
in
rain mn
in
humidity
%
barometer
mb
20240623170556 81 10 0.0 1.0 0.00 0.00 0.00 65 1010.3
20240623170057 81 10 0.0 1.0 0.00 0.00 0.00 66 1010.4
20240623165557 81 10 0.0 1.0 0.00 0.00 0.00 67 1010.3
20240623165057 81 10 0.0 1.0 0.00 0.00 0.00 66 1010.3
20240623164557 81 10 0.0 1.0 0.00 0.00 0.00 66 1010.3
20240623164056 81 10 0.0 1.0 0.00 0.00 0.00 66 1010.3
20240623163556 81 10 0.0 1.0 0.00 0.00 0.00 66 1010.3
20240623163057 81 10 0.0 1.0 0.00 0.00 0.00 65 1010.2
20240623162555 81 10 0.0 1.0 0.00 0.00 0.00 65 1010.2
20240623162056 81 10 0.0 1.0 0.00 0.00 0.00 64 1010.2
20240623161557 82 10 0.0 1.0 0.00 0.00 0.00 63 1010.2
20240623161055 82 10 0.0 3.0 0.00 0.00 0.00 61 1010.3
20240623160556 82 10 0.0 3.0 0.00 0.00 0.00 60 1010.3
20240623160059 83 5 1.0 3.0 0.00 0.00 0.00 59 1010.3
20240623155555 83 5 0.0 3.0 0.00 0.00 0.00 59 1010.3
20240623155057 83 10 1.0 4.0 0.00 0.00 0.00 58 1010.1
20240623154602 83 17 1.0 4.0 0.00 0.00 0.00 60 1010.1
20240623154055 84 9 1.0 3.0 0.00 0.00 0.00 58 1010.1
20240623153554 84 30 1.0 3.0 0.00 0.00 0.00 60 1010.2
20240623153053 83 31 0.0 1.0 0.00 0.00 0.00 62 1010.1
20240623152553 83 31 0.0 1.0 0.00 0.00 0.00 62 1010.2
20240623152053 82 31 0.0 1.0 0.00 0.00 0.00 63 1010.2
20240623151553 82 31 0.0 0.0 0.00 0.00 0.00 64 1010.3
20240623151053 82 31 0.0 1.0 0.00 0.00 0.00 64 1010.3
20240623150556 82 31 0.0 1.0 0.00 0.00 0.00 65 1010.3
20240623150053 82 31 0.0 0.0 0.00 0.00 0.00 65 1010.3
20240623145552 82 31 0.0 1.0 0.00 0.00 0.00 63 1010.3
20240623145053 81 31 0.0 2.0 0.00 0.00 0.00 62 1010.3
20240623144558 81 31 0.0 3.0 0.00 0.00 0.00 62 1010.3
20240623144054 82 31 1.0 4.0 0.00 0.00 0.00 62 1010.2
20240623143551 82 31 0.0 4.0 0.00 0.00 0.00 62 1010.3
20240623143052 82 31 1.0 3.0 0.00 0.00 0.00 60 1010.3
20240623142551 82 31 1.0 3.0 0.00 0.00 0.00 60 1010.4
20240623142051 82 59 1.0 7.0 0.00 0.00 0.00 58 1010.4
20240623141551 82 71 3.0 7.0 0.00 0.00 0.00 55 1010.4
20240623141051 82 61 2.0 8.0 0.00 0.00 0.00 54 1010.3
20240623140551 82 67 3.0 10.0 0.00 0.00 0.00 54 1010.4
20240623140051 82 57 4.0 10.0 0.00 0.00 0.00 54 1010.4
20240623135551 82 46 4.0 9.0 0.00 0.00 0.00 52 1010.4
20240623135050 82 58 2.0 7.0 0.00 0.00 0.00 54 1010.4
20240623134551 82 55 2.0 9.0 0.00 0.00 0.00 53 1010.4
20240623134050 82 100 5.0 9.0 0.00 0.00 0.00 53 1010.3
20240623133552 82 57 4.0 9.0 0.00 0.00 0.00 53 1010.3
20240623133056 82 67 4.0 13.0 0.00 0.00 0.00 53 1010.3
20240623132550 82 34 3.0 7.0 0.00 0.00 0.00 52 1010.4
20240623132049 83 26 3.0 7.0 0.00 0.00 0.00 53 1010.4
20240623131606 83 59 2.0 8.0 0.00 0.00 0.00 53 1010.3
20240623131050 83 67 4.0 11.0 0.00 0.00 0.00 51 1010.3
20240623130550 83 50 4.0 11.0 0.00 0.00 0.00 50 1010.3
20240623130049 83 355 1.0 6.0 0.00 0.00 0.00 52 1010.3
20240623125552 82 75 2.0 8.0 0.00 0.00 0.00 52 1010.4
20240623125049 82 57 4.0 8.0 0.00 0.00 0.00 52 1010.3
20240623124557 82 69 3.0 9.0 0.00 0.00 0.00 51 1010.4
20240623124048 83 76 3.0 10.0 0.00 0.00 0.00 51 1010.4
20240623123552 83 87 5.0 11.0 0.00 0.00 0.00 50 1010.4
20240623123104 83 51 5.0 11.0 0.00 0.00 0.00 50 1010.3
20240623122548 84 57 2.0 8.0 0.00 0.00 0.00 52 1010.4
20240623122047 84 35 3.0 8.0 0.00 0.00 0.00 50 1010.4
20240623121548 84 116 3.0 7.0 0.00 0.00 0.00 51 1010.4
20240623121046 83 44 2.0 8.0 0.00 0.00 0.00 51 1010.4
20240623120547 83 104 1.0 7.0 0.00 0.00 0.00 53 1010.4
20240623120048 83 14 3.0 10.0 0.00 0.00 0.00 52 1010.5
20240623115544 83 42 4.0 10.0 0.00 0.00 0.00 52 1010.5
20240623115043 83 45 3.0 7.0 0.00 0.00 0.00 53 1010.6
20240623114544 83 42 3.0 7.0 0.00 0.00 0.00 53 1010.6
20240623114043 83 55 4.0 7.0 0.00 0.00 0.00 54 1010.6
20240623113542 82 57 2.0 5.0 0.00 0.00 0.00 57 1010.5
20240623113055 81 74 2.0 8.0 0.00 0.00 0.00 57 1010.5
20240623112543 81 76 3.0 8.0 0.00 0.00 0.00 56 1010.5
20240623112042 81 71 4.0 8.0 0.00 0.00 0.00 55 1010.6
20240623111542 81 37 1.0 8.0 0.00 0.00 0.00 56 1010.6
20240623111042 81 76 1.0 8.0 0.00 0.00 0.00 56 1010.6
20240623110542 81 40 3.0 7.0 0.00 0.00 0.00 56 1010.5
20240623110045 82 50 2.0 5.0 0.00 0.00 0.00 55 1010.5
20240623105540 82 51 2.0 5.0 0.00 0.00 0.00 53 1010.5
20240623105040 83 65 2.0 4.0 0.00 0.00 0.00 54 1010.5
20240623104541 83 61 1.0 4.0 0.00 0.00 0.00 55 1010.5
20240623104039 83 109 1.0 4.0 0.00 0.00 0.00 55 1010.5
20240623103538 82 76 1.0 7.0 0.00 0.00 0.00 57 1010.5
20240623103041 82 84 2.0 8.0 0.00 0.00 0.00 57 1010.4
20240623102538 81 57 3.0 8.0 0.00 0.00 0.00 57 1010.4
20240623102038 81 38 2.0 6.0 0.00 0.00 0.00 56 1010.5
20240623101538 81 76 2.0 6.0 0.00 0.00 0.00 55 1010.5
20240623101038 81 55 3.0 10.0 0.00 0.00 0.00 56 1010.5
20240623100539 81 27 6.0 10.0 0.00 0.00 0.00 55 1010.4
20240623100037 81 53 4.0 9.0 0.00 0.00 0.00 54 1010.3
20240623095536 82 40 5.0 9.0 0.00 0.00 0.00 55 1010.4
20240623095036 82 40 5.0 8.0 0.00 0.00 0.00 57 1010.3
20240623094543 82 48 5.0 9.0 0.00 0.00 0.00 56 1010.3
20240623094034 82 71 4.0 11.0 0.00 0.00 0.00 58 1010.3
20240623093533 82 38 5.0 11.0 0.00 0.00 0.00 59 1010.3
20240623093036 82 75 5.0 10.0 0.00 0.00 0.00 58 1010.2
20240623092531 81 97 5.0 9.0 0.00 0.00 0.00 58 1010.3
20240623092031 81 69 4.0 11.0 0.00 0.00 0.00 59 1010.3
20240623091530 81 57 6.0 12.0 0.00 0.00 0.00 57 1010.1
20240623091034 81 42 4.0 12.0 0.00 0.00 0.00 58 1010.2
20240623090531 80 53 5.0 9.0 0.00 0.00 0.00 58 1010.1
20240623090031 80 40 4.0 13.0 0.00 0.00 0.00 59 1010.1
20240623085532 80 62 7.0 13.0 0.00 0.00 0.00 57 1010.0
20240623085030 81 15 5.0 17.0 0.00 0.00 0.00 59 1009.9
20240623084530 81 29 8.0 17.0 0.00 0.00 0.00 58 1009.9
20240623084028 81 25 6.0 12.0 0.00 0.00 0.00 60 1009.9
20240623083528 81 46 6.0 11.0 0.00 0.00 0.00 59 1010.0
20240623083035 81 22 5.0 11.0 0.00 0.00 0.00 61 1010.1
20240623082527 80 69 6.0 12.0 0.00 0.00 0.00 60 1010.1
20240623082026 80 35 5.0 13.0 0.00 0.00 0.00 61 1010.1
20240623081526 80 57 7.0 12.0 0.00 0.00 0.00 61 1010.2
20240623081027 80 29 8.0 12.0 0.00 0.00 0.00 61 1010.2
20240623080525 80 46 6.0 14.0 0.00 0.00 0.00 62 1010.3
20240623080027 79 56 8.0 14.0 0.00 0.00 0.00 63 1010.2
20240623075524 79 67 6.0 12.0 0.00 0.00 0.00 63 1010.2
20240623075021 79 34 6.0 14.0 0.00 0.00 0.00 62 1010.2
20240623074525 79 23 7.0 14.0 0.00 0.00 0.00 63 1010.2
20240623074020 79 24 6.0 15.0 0.00 0.00 0.00 64 1010.2
20240623073519 79 34 7.0 15.0 0.00 0.00 0.00 64 1010.2
20240623073033 78 24 4.0 8.0 0.00 0.00 0.00 66 1010.1
20240623072515 78 29 2.0 6.0 0.00 0.00 0.00 66 1010.2
20240623072016 78 40 2.0 6.0 0.00 0.00 0.00 66 1010.2
20240623071514 78 30 3.0 6.0 0.00 0.00 0.00 67 1010.1
20240623071013 77 45 3.0 8.0 0.00 0.00 0.00 68 1010.1
20240623070512 77 62 4.0 8.0 0.00 0.00 0.00 67 1010.1
20240623070011 77 57 3.0 7.0 0.00 0.00 0.00 67 1010.2
20240623065511 77 46 3.0 9.0 0.00 0.00 0.00 67 1010.2
20240623065011 77 61 3.0 8.0 0.00 0.00 0.00 68 1010.1
20240623064510 77 67 4.0 7.0 0.00 0.00 0.00 68 1010.1
20240623064009 76 44 3.0 7.0 0.00 0.00 0.00 70 1010.1
20240623063508 76 32 3.0 6.0 0.00 0.00 0.00 71 1010.0
20240623063012 75 40 3.0 8.0 0.00 0.00 0.00 72 1010.1
20240623062505 75 42 2.0 8.0 0.00 0.00 0.00 73 1010.1
20240623062004 75 81 2.0 5.0 0.00 0.00 0.00 73 1010.0
20240623061505 74 63 2.0 4.0 0.00 0.00 0.00 73 1010.0
20240623061001 74 52 2.0 4.0 0.00 0.00 0.00 74 1009.9
20240623060502 74 26 2.0 5.0 0.00 0.00 0.00 75 1009.9
20240623060109 74 65 2.0 5.0 0.00 0.00 0.00 75 1009.9
20240623055559 74 37 1.0 6.0 0.00 0.00 0.00 76 1009.9
20240623055058 73 34 2.0 6.0 0.00 0.00 0.00 76 1009.9
20240623054626 73 40 2.0 4.0 0.00 0.00 0.00 77 1009.8
20240623054057 73 44 1.0 4.0 0.00 0.00 0.00 77 1009.7
20240623053555 72 27 2.0 4.0 0.00 0.00 0.00 77 1009.7
20240623053056 72 22 2.0 3.0 0.00 0.00 0.00 78 1009.6
20240623052556 72 20 2.0 3.0 0.00 0.00 0.00 78 1009.6
20240623052055 72 25 2.0 4.0 0.00 0.00 0.00 77 1009.6
20240623051554 72 25 2.0 4.0 0.00 0.00 0.00 77 1009.5
20240623051054 73 20 2.0 4.0 0.00 0.00 0.00 76 1009.5
20240623050554 73 24 2.0 5.0 0.00 0.00 0.00 76 1009.5
20240623050054 72 28 2.0 5.0 0.00 0.00 0.00 77 1009.4
20240623045556 72 32 3.0 5.0 0.00 0.00 0.00 77 1009.3
20240623045053 72 16 3.0 5.0 0.00 0.00 0.00 77 1009.2
20240623044551 72 33 3.0 5.0 0.00 0.00 0.00 77 1009.2
20240623044050 72 27 3.0 5.0 0.00 0.00 0.00 77 1009.1
20240623043548 72 22 3.0 5.0 0.00 0.00 0.00 78 1009.0
20240623043051 72 20 3.0 5.0 0.00 0.00 0.00 78 1008.9
20240623042546 71 40 3.0 6.0 0.00 0.00 0.00 79 1008.9
20240623042046 71 27 3.0 6.0 0.00 0.00 0.00 80 1008.9
20240623041545 71 44 2.0 4.0 0.00 0.00 0.00 80 1008.8
20240623041044 71 36 2.0 5.0 0.00 0.00 0.00 81 1008.8
20240623040545 71 32 2.0 5.0 0.00 0.00 0.00 81 1008.8
20240623040050 70 28 2.0 5.0 0.00 0.00 0.00 81 1008.7
20240623035544 70 44 2.0 4.0 0.00 0.00 0.00 82 1008.7
20240623035043 70 26 2.0 5.0 0.00 0.00 0.00 82 1008.7
20240623034542 70 18 2.0 5.0 0.00 0.00 0.00 83 1008.7
20240623034043 69 22 2.0 4.0 0.00 0.00 0.00 83 1008.7
20240623033539 69 23 3.0 4.0 0.00 0.00 0.00 84 1008.7
20240623033039 69 24 3.0 4.0 0.00 0.00 0.00 84 1008.6
20240623032539 69 24 2.0 4.0 0.00 0.00 0.00 84 1008.5
20240623032040 69 24 2.0 4.0 0.00 0.00 0.00 85 1008.6
20240623031549 69 24 2.0 3.0 0.00 0.00 0.00 85 1008.5
20240623031038 69 24 2.0 3.0 0.00 0.00 0.00 85 1008.5
20240623030537 69 24 1.0 3.0 0.00 0.00 0.00 85 1008.6
20240623030049 69 24 1.0 3.0 0.00 0.00 0.00 85 1008.5
20240623025537 69 24 2.0 3.0 0.00 0.00 0.00 85 1008.5
20240623025036 68 24 2.0 4.0 0.00 0.00 0.00 85 1008.5
20240623024536 68 24 3.0 4.0 0.00 0.00 0.00 85 1008.5
20240623024037 68 24 1.0 3.0 0.00 0.00 0.00 85 1008.4
20240623023535 68 24 1.0 4.0 0.00 0.00 0.00 85 1008.3
20240623023039 68 24 2.0 4.0 0.00 0.00 0.00 86 1008.2
20240623022535 68 25 2.0 4.0 0.00 0.00 0.00 86 1008.1
20240623022035 68 26 3.0 5.0 0.00 0.00 0.00 86 1008.1
20240623021549 68 21 2.0 4.0 0.00 0.00 0.00 86 1008.2
20240623021034 68 21 2.0 4.0 0.00 0.00 0.00 86 1008.1
20240623020534 68 21 2.0 4.0 0.00 0.00 0.00 86 1008.2
20240623020034 69 21 2.0 4.0 0.00 0.00 0.00 86 1008.0
20240623015534 68 22 3.0 4.0 0.00 0.00 0.00 86 1007.9
20240623015033 69 15 3.0 4.0 0.00 0.00 0.00 86 1007.8
20240623014533 69 19 2.0 4.0 0.00 0.00 0.00 86 1007.7
20240623014035 68 20 2.0 4.0 0.00 0.00 0.00 86 1007.7
20240623013532 68 23 3.0 4.0 0.00 0.00 0.00 86 1007.7
20240623013032 68 23 2.0 4.0 0.00 0.00 0.00 86 1007.7
20240623012532 68 23 2.0 4.0 0.00 0.00 0.00 86 1007.8
20240623012032 68 23 2.0 4.0 0.00 0.00 0.00 86 1007.9
20240623011538 69 23 1.0 3.0 0.00 0.00 0.00 86 1008.0
20240623011029 69 23 0.0 3.0 0.00 0.00 0.00 86 1008.1
20240623010529 69 23 1.0 4.0 0.00 0.00 0.00 86 1008.1
20240623010036 69 23 2.0 5.0 0.00 0.00 0.00 85 1008.0
20240623005528 69 23 3.0 5.0 0.00 0.00 0.00 85 1008.0
20240623005029 69 25 2.0 4.0 0.00 0.00 0.00 86 1007.9
20240623004529 69 25 2.0 4.0 0.00 0.00 0.00 86 1007.9
20240623004027 69 25 3.0 4.0 0.00 0.00 0.00 86 1007.8
20240623003527 69 31 3.0 4.0 0.00 0.00 0.00 86 1007.8
20240623003028 69 30 2.0 4.0 0.00 0.00 0.00 86 1007.7
20240623002526 69 49 2.0 3.0 0.00 0.00 0.00 86 1007.8
20240623002026 69 49 1.0 2.0 0.00 0.00 0.00 86 1007.8
20240623001534 69 49 1.0 2.0 0.00 0.00 0.00 86 1007.9
20240623001026 70 49 1.0 2.0 0.00 0.00 0.00 86 1008.0
20240623000525 70 49 0.0 2.0 0.00 0.00 0.00 86 1007.9
20240623000031 70 49 1.0 2.0 0.00 0.00 0.00 86 1007.9
20240622235525 70 49 0.0 2.0 0.00 0.05 0.00 86 1007.9
20240622235024 70 49 0.0 3.0 0.00 0.05 0.00 86 1007.9
20240622234523 70 49 1.0 3.0 0.00 0.05 0.00 86 1007.7
20240622234022 70 49 1.0 3.0 0.00 0.05 0.00 86 1007.8
20240622233521 70 49 1.0 2.0 0.00 0.05 0.00 86 1007.8
20240622233021 71 49 1.0 3.0 0.00 0.05 0.00 86 1007.8
20240622232520 71 49 0.0 3.0 0.00 0.05 0.00 86 1007.8
20240622232022 71 49 1.0 3.0 0.00 0.05 0.00 86 1007.8
20240622231518 71 49 1.0 3.0 0.00 0.05 0.00 86 1007.9
20240622231017 71 49 0.0 2.0 0.00 0.05 0.00 86 1008.0
20240622230516 71 49 0.0 2.0 0.00 0.05 0.00 86 1008.1
20240622230016 72 49 0.0 2.0 0.00 0.05 0.00 86 1008.1
20240622225517 72 49 1.0 2.0 0.00 0.05 0.00 85 1008.1
20240622225015 72 49 0.0 1.0 0.00 0.05 0.00 86 1008.1
20240622224515 72 49 0.0 3.0 0.00 0.05 0.00 86 1008.1
20240622224014 72 49 1.0 3.0 0.00 0.05 0.00 86 1008.2
20240622223513 72 49 2.0 3.0 0.00 0.05 0.00 86 1008.1
20240622223021 73 49 0.0 2.0 0.00 0.05 0.00 85 1008.2
20240622222513 73 49 0.0 0.0 0.00 0.05 0.00 86 1008.3
20240622222012 73 49 0.0 0.0 0.00 0.05 0.00 86 1008.3
20240622221522 73 49 0.0 1.0 0.00 0.05 0.00 86 1008.3
20240622221010 73 49 0.0 2.0 0.00 0.05 0.00 85 1008.4
20240622220510 73 49 0.0 3.0 0.00 0.05 0.00 85 1008.4
20240622220010 73 49 1.0 3.0 0.00 0.05 0.00 85 1008.4
20240622215513 72 49 1.0 3.0 0.00 0.05 0.05 85 1008.4
20240622215009 72 49 1.0 3.0 0.00 0.05 0.05 85 1008.3
20240622214508 72 49 1.0 2.0 0.00 0.05 0.05 85 1008.2
20240622214008 72 50 1.0 2.0 0.00 0.05 0.05 85 1008.2
20240622213511 72 50 1.0 2.0 0.00 0.05 0.05 84 1008.2
20240622213008 72 50 0.0 3.0 0.00 0.05 0.05 85 1008.2
20240622212507 72 50 1.0 3.0 0.00 0.05 0.05 85 1008.2
20240622212007 72 50 0.0 1.0 0.00 0.05 0.05 85 1008.2
20240622211508 72 50 0.0 1.0 0.00 0.05 0.05 85 1008.2
20240622211007 72 50 0.0 1.0 0.00 0.05 0.05 85 1008.2
20240622210507 72 50 0.0 1.0 0.00 0.05 0.05 85 1008.3
20240622210007 72 50 0.0 2.0 0.00 0.05 0.05 86 1008.3
20240622205507 72 50 0.0 2.0 0.00 0.05 0.05 86 1008.3
20240622205012 72 50 0.0 2.0 0.00 0.05 0.05 85 1008.3
20240622204515 73 50 0.0 1.0 0.00 0.05 0.05 85 1008.2
20240622204009 73 50 0.0 0.0 0.00 0.05 0.05 85 1008.2
20240622203506 73 50 0.0 0.0 0.00 0.05 0.05 85 1008.2
20240622203006 74 50 0.0 0.0 0.00 0.05 0.05 84 1008.1
20240622202506 74 50 0.0 0.0 0.00 0.05 0.05 84 1008.1
20240622202007 74 50 0.0 2.0 0.00 0.05 0.05 84 1007.9
20240622201505 74 50 0.0 2.0 0.00 0.05 0.05 84 1007.8
20240622201007 74 50 0.0 4.0 0.00 0.05 0.05 83 1007.7
20240622200506 74 50 0.0 4.0 0.00 0.05 0.05 83 1007.6
20240622200006 74 55 0.0 3.0 0.00 0.05 0.05 83 1007.6
20240622195506 74 71 0.0 2.0 0.00 0.05 0.05 83 1007.6
20240622195005 74 71 0.0 2.0 0.00 0.05 0.05 82 1007.6
20240622194505 75 71 0.0 2.0 0.00 0.05 0.05 81 1007.5
20240622194005 75 71 0.0 1.0 0.00 0.05 0.05 81 1007.6
20240622193507 75 71 0.0 1.0 0.00 0.05 0.05 81 1007.5
20240622193005 75 71 0.0 1.0 0.00 0.05 0.05 80 1007.4
20240622192504 75 71 0.0 3.0 0.00 0.05 0.05 79 1007.4
20240622192004 75 71 1.0 3.0 0.00 0.05 0.05 79 1007.3
20240622191504 76 89 0.0 0.0 0.00 0.05 0.05 78 1007.3
20240622191004 76 89 0.0 2.0 0.00 0.05 0.05 78 1007.3
20240622190504 76 89 0.0 3.0 0.00 0.05 0.05 77 1007.2
20240622190004 76 89 1.0 3.0 0.00 0.05 0.05 77 1007.1
20240622185505 76 113 0.0 1.0 0.00 0.05 0.05 76 1007.1
20240622185003 76 113 0.0 1.0 0.00 0.05 0.05 76 1007.2
20240622184503 77 113 0.0 1.0 0.00 0.05 0.05 77 1007.2
20240622184003 77 113 0.0 1.0 0.00 0.05 0.05 76 1007.3
20240622183503 77 113 0.0 1.0 0.00 0.05 0.05 76 1007.3
20240622183003 77 113 0.0 1.0 0.00 0.05 0.05 75 1007.2
20240622182503 78 113 0.0 1.0 0.00 0.05 0.05 75 1007.1
20240622182002 78 113 0.0 1.0 0.00 0.05 0.05 74 1007.0
20240622181502 78 113 0.0 1.0 0.00 0.05 0.05 74 1007.0
20240622181005 79 113 0.0 1.0 0.00 0.05 0.05 73 1007.0
20240622180502 79 113 0.0 1.0 0.00 0.05 0.05 74 1007.1
20240622180003 80 113 0.0 1.0 0.00 0.05 0.05 73 1007.1
20240622175502 80 113 0.0 1.0 0.00 0.05 0.05 72 1006.9
20240622175002 80 113 0.0 1.0 0.00 0.05 0.05 72 1006.9
20240622174503 81 113 0.0 2.0 0.00 0.05 0.05 71 1006.8
20240622174003 81 112 0.0 4.0 0.00 0.05 0.05 71 1006.6
20240622173501 82 85 1.0 5.0 0.00 0.05 0.05 70 1006.6
20240622173000 82 228 1.0 5.0 0.00 0.05 0.05 69 1006.6
20240622172502 83 212 0.0 3.0 0.00 0.05 0.05 68 1006.6
20240622172001 83 70 1.0 5.0 0.00 0.05 0.05 67 1006.6
20240622171614 84 96 0.0 4.0 0.00 0.05 0.05 67 1006.6
20240622171100 84 331 1.0 4.0 0.00 0.05 0.05 66 1006.5